,,Stat6,,Stat2,,Stat8,,Stat9,,Stat10,,Wind1,,Wind1,
time,status,PA1M_AVG,status,PR1M_SUM,status,RH1M_AVG,status,SR1M_AVG,status,TA1M_AVG,status,W1dAve1m,status,W1sAve1m,
2007-11-03, 00:00:00,VALID,917.438,VALID,0,VALID,100,VALID,-0.0169808,VALID,18.8873,VALID,60,VALID,0.935497,
2007-11-03, 00:01:00,VALID,917.423,VALID,0,VALID,100,VALID,-0.0679233,VALID,18.897,VALID,89,VALID,0.700838,
2007-11-03, 00:02:00,VALID,917.418,VALID,0,VALID,100,VALID,-0.0169808,VALID,18.8739,VALID,73,VALID,0.976385,
2007-11-03, 00:03:00,VALID,917.415,VALID,0,VALID,100,VALID,-0.0169808,VALID,18.8414,VALID,51,VALID,1.22383,
2007-11-03, 00:04:00,VALID,917.4,VALID,0,VALID,100,VALID,-0.0169808,VALID,18.8349,VALID,47,VALID,1.0465,
2007-11-03, 00:05:00,VALID,917.385,VALID,0,VALID,100,VALID,-0.0169808,VALID,18.8025,VALID,64,VALID,0.744234,
2007-11-03, 00:06:00,VALID,917.364,VALID,0,VALID,100,VALID,-0.0169808,VALID,18.8122,VALID,66,VALID,0.190549,
2007-11-03, 00:07:00,VALID,917.347,VALID,0.2,VALID,100,VALID,-0.0339617,VALID,18.8491,VALID,66,VALID,0.165234,
2007-11-03, 00:08:00,VALID,917.322,VALID,0,VALID,100,VALID,-0.0339617,VALID,18.8621,VALID,65,VALID,0,
2007-11-03, 00:09:00,VALID,917.31,VALID,0,VALID,100,VALID,-0.0509425,VALID,18.8783,VALID,66,VALID,0,
2007-11-03, 00:10:00,VALID,917.311,VALID,0,VALID,100,VALID,-0.0679233,VALID,18.891,VALID,66,VALID,0.522347,
2007-11-03, 00:11:00,VALID,917.302,VALID,0,VALID,100,VALID,-0.0679233,VALID,18.8785,VALID,64,VALID,0.147529,
2007-11-03, 00:12:00,VALID,917.304,VALID,0,VALID,100,VALID,-0.0679233,VALID,18.8815,VALID,64,VALID,0.0521439,
2007-11-03, 00:13:00,VALID,917.295,VALID,0,VALID,100,VALID,-0.101885,VALID,18.8883,VALID,61,VALID,0.712391,
2007-11-03, 00:14:00,VALID,917.287,VALID,0,VALID,100,VALID,-0.0849042,VALID,18.8558,VALID,64,VALID,1.04492,
2007-11-03, 00:15:00,VALID,917.277,VALID,0,VALID,100,VALID,-0.0679233,VALID,18.8296,VALID,61,VALID,0.545785,
2007-11-03, 00:16:00,VALID,917.267,VALID,0,VALID,100,VALID,-0.0849042,VALID,18.8171,VALID,59,VALID,0.913681,
2007-11-03, 00:17:00,VALID,917.242,VALID,0,VALID,100,VALID,-0.0679233,VALID,18.7845,VALID,55,VALID,1.1263,
2007-11-03, 00:18:00,VALID,917.236,VALID,0,VALID,100,VALID,-0.0849042,VALID,18.7875,VALID,39,VALID,0.751302,
2007-11-03, 00:19:00,VALID,917.244,VALID,0,VALID,100,VALID,-0.0849042,VALID,18.7745,VALID,53,VALID,1.00819,
2007-11-03, 00:20:00,VALID,917.235,VALID,0,VALID,100,VALID,-0.0849042,VALID,18.7548,VALID,44,VALID,1.3323,
2007-11-03, 00:21:00,VALID,917.241,VALID,0,VALID,100,VALID,-0.0339617,VALID,18.7291,VALID,53,VALID,1.09073,
2007-11-03, 00:22:00,VALID,917.227,VALID,0,VALID,100,VALID,-0.0509425,VALID,18.7481,VALID,55,VALID,0.977364,
2007-11-03, 00:23:00,VALID,917.228,VALID,0,VALID,100,VALID,-0.0509425,VALID,18.7381,VALID,55,VALID,1.22452,
2007-11-03, 00:24:00,VALID,917.221,VALID,0,VALID,100,VALID,-0.0339617,VALID,18.6927,VALID,73,VALID,1.71399,
2007-11-03, 00:25:00,VALID,917.237,VALID,0,VALID,100,VALID,-0.0169808,VALID,18.7418,VALID,64,VALID,1.14025,
2007-11-03, 00:26:00,VALID,917.227,VALID,0,VALID,100,VALID,-0.0849042,VALID,18.7613,VALID,52,VALID,0.765104,
2007-11-03, 00:27:00,VALID,917.225,VALID,0,VALID,100,VALID,-0.0679233,VALID,18.7812,VALID,55,VALID,0.523996,
2007-11-03, 00:28:00,VALID,917.231,VALID,0,VALID,100,VALID,-0.0679233,VALID,18.768,VALID,64,VALID,0.661659,
2007-11-03, 00:29:00,VALID,917.225,VALID,0,VALID,100,VALID,-0.0679233,VALID,18.7907,VALID,65,VALID,0.604421,
2007-11-03, 00:30:00,VALID,917.217,VALID,0,VALID,100,VALID,-0.0679233,VALID,18.761,VALID,57,VALID,0.665625,
2007-11-03, 00:31:00,VALID,917.204,VALID,0,VALID,100,VALID,-0.0509425,VALID,18.7875,VALID,53,VALID,0.516868,
2007-11-03, 00:32:00,VALID,917.2,VALID,0,VALID,100,VALID,-0.0849042,VALID,18.7967,VALID,55,VALID,0.238542,
2007-11-03, 00:33:00,VALID,917.172,VALID,0,VALID,100,VALID,-0.0849042,VALID,18.7935,VALID,55,VALID,0,
2007-11-03, 00:34:00,VALID,917.173,VALID,0,VALID,100,VALID,-0.101885,VALID,18.8234,VALID,55,VALID,0,
2007-11-03, 00:35:00,VALID,917.13,VALID,0,VALID,100,VALID,-0.0849042,VALID,18.8004,VALID,55,VALID,0.0552591,
2007-11-03, 00:36:00,VALID,917.127,VALID,0,VALID,100,VALID,-0.0509425,VALID,18.7643,VALID,18,VALID,0.511533,
2007-11-03, 00:37:00,VALID,917.13,VALID,0,VALID,100,VALID,-0.0679233,VALID,18.7747,VALID,27,VALID,0.484575,
2007-11-03, 00:38:00,VALID,917.117,VALID,0,VALID,100,VALID,-0.0679233,VALID,18.771,VALID,34,VALID,0.640825,
2007-11-03, 00:39:00,VALID,917.097,VALID,0,VALID,100,VALID,-0.0339617,VALID,18.7448,VALID,8,VALID,0.316692,
2007-11-03, 00:40:00,VALID,917.085,VALID,0,VALID,100,VALID,-0.0509425,VALID,18.768,VALID,76,VALID,0.49272,
2007-11-03, 00:41:00,VALID,917.084,VALID,0.2,VALID,100,VALID,-0.0339617,VALID,18.7937,VALID,77,VALID,0.748935,
2007-11-03, 00:42:00,VALID,917.069,VALID,0,VALID,100,VALID,-0.0339617,VALID,18.8095,VALID,64,VALID,0.605741,
2007-11-03, 00:43:00,VALID,917.051,VALID,0,VALID,100,VALID,0,VALID,18.8162,VALID,61,VALID,0.0477628,
2007-11-03, 00:44:00,VALID,917.047,VALID,0,VALID,100,VALID,-0.0679233,VALID,18.8294,VALID,61,VALID,0,
2007-11-03, 00:45:00,VALID,917.037,VALID,0,VALID,100,VALID,0,VALID,18.8129,VALID,61,VALID,0,
2007-11-03, 00:46:00,VALID,917.016,VALID,0,VALID,100,VALID,-0.0509425,VALID,18.8159,VALID,61,VALID,0,
2007-11-03, 00:47:00,VALID,917.001,VALID,0,VALID,100,VALID,-0.0339617,VALID,18.8364,VALID,61,VALID,0,
2007-11-03, 00:48:00,VALID,916.972,VALID,0,VALID,100,VALID,-0.0849042,VALID,18.8461,VALID,61,VALID,0,
2007-11-03, 00:49:00,VALID,916.953,VALID,0,VALID,100,VALID,-0.101885,VALID,18.8658,VALID,61,VALID,0,
2007-11-03, 00:50:00,VALID,916.92,VALID,0,VALID,100,VALID,-0.0679233,VALID,18.885,VALID,61,VALID,0,
2007-11-03, 00:51:00,VALID,916.907,VALID,0,VALID,100,VALID,-0.0339617,VALID,18.8913,VALID,61,VALID,0,
2007-11-03, 00:52:00,VALID,916.867,VALID,0,VALID,100,VALID,-0.0679233,VALID,18.8716,VALID,67,VALID,0.648438,
2007-11-03, 00:53:00,VALID,916.855,VALID,0,VALID,100,VALID,-0.0509425,VALID,18.8556,VALID,76,VALID,0.400977,
2007-11-03, 00:54:00,VALID,916.854,VALID,0,VALID,100,VALID,-0.0509425,VALID,18.8683,VALID,56,VALID,0.712573,
2007-11-03, 00:55:00,VALID,916.862,VALID,0,VALID,100,VALID,-0.0679233,VALID,18.8651,VALID,55,VALID,0.724657,
2007-11-03, 00:56:00,VALID,916.847,VALID,0,VALID,100,VALID,-0.0679233,VALID,18.8586,VALID,58,VALID,0.442294,
2007-11-03, 00:57:00,VALID,916.86,VALID,0,VALID,100,VALID,-0.0679233,VALID,18.8556,VALID,60,VALID,0.949306,
2007-11-03, 00:58:00,VALID,916.848,VALID,0,VALID,100,VALID,-0.0339617,VALID,18.8387,VALID,54,VALID,0.783854,
2007-11-03, 00:59:00,VALID,916.828,VALID,0,VALID,100,VALID,-0.0169808,VALID,18.8324,VALID,56,VALID,0.763393,
2007-11-03, 01:00:00,VALID,916.831,VALID,0,VALID,100,VALID,-0.0339617,VALID,18.8125,VALID,63,VALID,0.603413,
2007-11-03, 01:01:00,VALID,916.818,VALID,0,VALID,100,VALID,-0.0169808,VALID,18.8197,VALID,55,VALID,0.465843,
2007-11-03, 01:02:00,VALID,916.811,VALID,0,VALID,100,VALID,-0.0509425,VALID,18.8004,VALID,57,VALID,0.872024,
2007-11-03, 01:03:00,VALID,916.803,VALID,0,VALID,100,VALID,-0.0509425,VALID,18.7935,VALID,67,VALID,0.525856,
2007-11-03, 01:04:00,VALID,916.788,VALID,0,VALID,100,VALID,-0.0339617,VALID,18.7902,VALID,67,VALID,0.335321,
2007-11-03, 01:05:00,VALID,916.769,VALID,0,VALID,100,VALID,-0.0169808,VALID,18.7865,VALID,67,VALID,0.520597,
2007-11-03, 01:06:00,VALID,916.752,VALID,0,VALID,100,VALID,-0.0339617,VALID,18.7995,VALID,68,VALID,0.445486,
2007-11-03, 01:07:00,VALID,916.746,VALID,0,VALID,100,VALID,-0.0679233,VALID,18.803,VALID,68,VALID,0.59484,
2007-11-03, 01:08:00,VALID,916.737,VALID,0,VALID,100,VALID,-0.101885,VALID,18.8169,VALID,68,VALID,0.375363,
2007-11-03, 01:09:00,VALID,916.719,VALID,0,VALID,100,VALID,-0.101885,VALID,18.8104,VALID,68,VALID,0.137355,
2007-11-03, 01:10:00,VALID,916.698,VALID,0,VALID,100,VALID,-0.118866,VALID,18.7877,VALID,68,VALID,0.0552591,
2007-11-03, 01:11:00,VALID,916.688,VALID,0,VALID,100,VALID,-0.118866,VALID,18.7845,VALID,68,VALID,0.0269097,
2007-11-03, 01:12:00,VALID,916.678,VALID,0,VALID,100,VALID,-0.101885,VALID,18.7842,VALID,67,VALID,0.0102307,
2007-11-03, 01:13:00,VALID,916.657,VALID,0,VALID,100,VALID,-0.135847,VALID,18.7942,VALID,60,VALID,0.544792,
2007-11-03, 01:14:00,VALID,916.646,VALID,0,VALID,100,VALID,-0.101885,VALID,18.7615,VALID,65,VALID,0.785442,
2007-11-03, 01:15:00,VALID,916.632,VALID,0,VALID,100,VALID,-0.0849042,VALID,18.739,VALID,65,VALID,0.646913,
2007-11-03, 01:16:00,VALID,916.627,VALID,0,VALID,100,VALID,-0.101885,VALID,18.7418,VALID,65,VALID,0.514482,
2007-11-03, 01:17:00,VALID,916.596,VALID,0,VALID,100,VALID,-0.101885,VALID,18.7388,VALID,64,VALID,0.671365,
2007-11-03, 01:18:00,VALID,916.589,VALID,0,VALID,100,VALID,-0.101885,VALID,18.7224,VALID,58,VALID,0.981707,
2007-11-03, 01:19:00,VALID,916.559,VALID,0,VALID,100,VALID,-0.101885,VALID,18.7296,VALID,59,VALID,0.852134,
2007-11-03, 01:20:00,VALID,916.538,VALID,0,VALID,100,VALID,-0.0849042,VALID,18.7034,VALID,59,VALID,0.934593,
2007-11-03, 01:21:00,VALID,916.512,VALID,0,VALID,100,VALID,-0.0849042,VALID,18.6966,VALID,59,VALID,0.985863,
2007-11-03, 01:22:00,VALID,916.494,VALID,0,VALID,100,VALID,-0.101885,VALID,18.657,VALID,57,VALID,0.941406,
2007-11-03, 01:23:00,VALID,916.471,VALID,0,VALID,100,VALID,-0.101885,VALID,18.6709,VALID,61,VALID,0.743641,
2007-11-03, 01:24:00,VALID,916.466,VALID,0,VALID,100,VALID,-0.0849042,VALID,18.6712,VALID,63,VALID,0.766369,
2007-11-03, 01:25:00,VALID,916.457,VALID,0,VALID,100,VALID,-0.101885,VALID,18.664,VALID,58,VALID,0.786859,
2007-11-03, 01:26:00,VALID,916.469,VALID,0,VALID,100,VALID,-0.135847,VALID,18.6644,VALID,58,VALID,0.668341,
2007-11-03, 01:27:00,VALID,916.446,VALID,0,VALID,100,VALID,-0.135847,VALID,18.6707,VALID,49,VALID,0.390972,
2007-11-03, 01:28:00,VALID,916.449,VALID,0,VALID,100,VALID,-0.101885,VALID,18.6707,VALID,40,VALID,0.731136,
2007-11-03, 01:29:00,VALID,916.44,VALID,0,VALID,100,VALID,-0.101885,VALID,18.6804,VALID,36,VALID,0.489025,
2007-11-03, 01:30:00,VALID,916.422,VALID,0,VALID,100,VALID,-0.101885,VALID,18.6742,VALID,46,VALID,0.57934,
2007-11-03, 01:31:00,VALID,916.425,VALID,0,VALID,100,VALID,-0.101885,VALID,18.6675,VALID,53,VALID,0.813086,
2007-11-03, 01:32:00,VALID,916.422,VALID,0,VALID,100,VALID,-0.118866,VALID,18.6742,VALID,46,VALID,0.75327,
2007-11-03, 01:33:00,VALID,916.412,VALID,0,VALID,100,VALID,-0.135847,VALID,18.658,VALID,42,VALID,0.544829,
2007-11-03, 01:34:00,VALID,916.415,VALID,0,VALID,100,VALID,-0.101885,VALID,18.6642,VALID,42,VALID,0.344151,
2007-11-03, 01:35:00,VALID,916.392,VALID,0,VALID,100,VALID,-0.0849042,VALID,18.6807,VALID,46,VALID,0.31978,
2007-11-03, 01:36:00,VALID,916.373,VALID,0,VALID,100,VALID,-0.101885,VALID,18.6969,VALID,59,VALID,0.820964,
2007-11-03, 01:37:00,VALID,916.364,VALID,0,VALID,100,VALID,-0.0339617,VALID,18.6957,VALID,56,VALID,0.832227,
2007-11-03, 01:38:00,VALID,916.355,VALID,0,VALID,100,VALID,0,VALID,18.6725,VALID,63,VALID,1.21627,
2007-11-03, 01:39:00,VALID,916.347,VALID,0.2,VALID,100,VALID,-0.0169808,VALID,18.6531,VALID,63,VALID,1.03398,
2007-11-03, 01:40:00,VALID,916.336,VALID,0,VALID,100,VALID,-0.0169808,VALID,18.6695,VALID,72,VALID,0.787246,
2007-11-03, 01:41:00,VALID,916.336,VALID,0,VALID,100,VALID,0,VALID,18.6823,VALID,43,VALID,0.503997,
2007-11-03, 01:42:00,VALID,916.328,VALID,0,VALID,100,VALID,0,VALID,18.6792,VALID,45,VALID,0.580983,
2007-11-03, 01:43:00,VALID,916.322,VALID,0,VALID,100,VALID,0,VALID,18.663,VALID,48,VALID,0.579578,
2007-11-03, 01:44:00,VALID,916.31,VALID,0,VALID,100,VALID,0,VALID,18.6468,VALID,70,VALID,1.20349,
2007-11-03, 01:45:00,VALID,916.299,VALID,0,VALID,100,VALID,-0.0169808,VALID,18.6501,VALID,57,VALID,1.03688,
2007-11-03, 01:46:00,VALID,916.289,VALID,0,VALID,100,VALID,-0.0169808,VALID,18.6501,VALID,47,VALID,1.08612,
2007-11-03, 01:47:00,VALID,916.269,VALID,0,VALID,100,VALID,0.0169808,VALID,18.6306,VALID,60,VALID,1.06917,
2007-11-03, 01:48:00,VALID,916.251,VALID,0,VALID,100,VALID,0.0339617,VALID,18.6306,VALID,56,VALID,0.971418,
2007-11-03, 01:49:00,VALID,916.242,VALID,0,VALID,100,VALID,0,VALID,18.6558,VALID,56,VALID,0.746094,
2007-11-03, 01:50:00,VALID,916.222,VALID,0,VALID,100,VALID,0,VALID,18.6628,VALID,63,VALID,0.478924,
2007-11-03, 01:51:00,VALID,916.2,VALID,0,VALID,100,VALID,0,VALID,18.6698,VALID,63,VALID,0.287574,
2007-11-03, 01:52:00,VALID,916.182,VALID,0,VALID,100,VALID,0.0509425,VALID,18.6922,VALID,63,VALID,0,
2007-11-03, 01:53:00,VALID,916.157,VALID,0,VALID,100,VALID,-0.0169808,VALID,18.7244,VALID,67,VALID,0.0457849,
2007-11-03, 01:54:00,VALID,916.137,VALID,0,VALID,100,VALID,0,VALID,18.7117,VALID,97,VALID,0.478161,
2007-11-03, 01:55:00,VALID,916.111,VALID,0,VALID,100,VALID,0.0169808,VALID,18.6561,VALID,108,VALID,0.826122,
2007-11-03, 01:56:00,VALID,916.115,VALID,0,VALID,100,VALID,0,VALID,18.6204,VALID,112,VALID,0.675686,
2007-11-03, 01:57:00,VALID,916.108,VALID,0,VALID,100,VALID,0.0339617,VALID,18.6005,VALID,83,VALID,0.680903,
2007-11-03, 01:58:00,VALID,916.101,VALID,0,VALID,100,VALID,0,VALID,18.6371,VALID,64,VALID,0.699505,
2007-11-03, 01:59:00,VALID,916.1,VALID,0,VALID,100,VALID,0,VALID,18.6403,VALID,62,VALID,0.882118,
2007-11-03, 02:00:00,VALID,916.098,VALID,0,VALID,100,VALID,-0.0339617,VALID,18.6368,VALID,63,VALID,0.722842,
2007-11-03, 02:01:00,VALID,916.106,VALID,0,VALID,100,VALID,0.0169808,VALID,18.6271,VALID,58,VALID,0.894903,
2007-11-03, 02:02:00,VALID,916.094,VALID,0,VALID,100,VALID,0,VALID,18.5975,VALID,60,VALID,1.06231,
2007-11-03, 02:03:00,VALID,916.096,VALID,0,VALID,100,VALID,0.0169808,VALID,18.588,VALID,65,VALID,1.10918,
2007-11-03, 02:04:00,VALID,916.083,VALID,0,VALID,100,VALID,0.0169808,VALID,18.5817,VALID,80,VALID,1.34757,
2007-11-03, 02:05:00,VALID,916.081,VALID,0,VALID,100,VALID,0.0169808,VALID,18.559,VALID,86,VALID,1.37863,
2007-11-03, 02:06:00,VALID,916.082,VALID,0,VALID,100,VALID,0.0169808,VALID,18.5625,VALID,75,VALID,1.13063,
2007-11-03, 02:07:00,VALID,916.077,VALID,0.2,VALID,100,VALID,-0.0169808,VALID,18.55,VALID,80,VALID,1.17969,
2007-11-03, 02:08:00,VALID,916.078,VALID,0,VALID,100,VALID,-0.0509425,VALID,18.5799,VALID,71,VALID,0.890278,
2007-11-03, 02:09:00,VALID,916.095,VALID,0,VALID,100,VALID,-0.0849042,VALID,18.5866,VALID,65,VALID,1.14898,
2007-11-03, 02:10:00,VALID,916.09,VALID,0,VALID,100,VALID,-0.0849042,VALID,18.5827,VALID,48,VALID,1.1976,
2007-11-03, 02:11:00,VALID,916.093,VALID,0,VALID,100,VALID,-0.0509425,VALID,18.5993,VALID,60,VALID,1.23281,
2007-11-03, 02:12:00,VALID,916.067,VALID,0,VALID,100,VALID,-0.0849042,VALID,18.5834,VALID,74,VALID,1.24442,
2007-11-03, 02:13:00,VALID,916.068,VALID,0,VALID,100,VALID,-0.0849042,VALID,18.5664,VALID,77,VALID,1.16546,
2007-11-03, 02:14:00,VALID,916.068,VALID,0,VALID,100,VALID,-0.118866,VALID,18.5929,VALID,62,VALID,0.713145,
2007-11-03, 02:15:00,VALID,916.062,VALID,0,VALID,100,VALID,-0.0849042,VALID,18.6026,VALID,59,VALID,1.1657,
2007-11-03, 02:16:00,VALID,916.046,VALID,0,VALID,100,VALID,-0.101885,VALID,18.5996,VALID,59,VALID,1.05142,
2007-11-03, 02:17:00,VALID,916.055,VALID,0,VALID,100,VALID,-0.101885,VALID,18.5896,VALID,68,VALID,1.56529,
2007-11-03, 02:18:00,VALID,916.062,VALID,0,VALID,100,VALID,-0.0509425,VALID,18.6026,VALID,64,VALID,1.47559,
2007-11-03, 02:19:00,VALID,916.058,VALID,0,VALID,100,VALID,-0.0679233,VALID,18.5929,VALID,55,VALID,1.18212,
2007-11-03, 02:20:00,VALID,916.07,VALID,0,VALID,100,VALID,-0.0849042,VALID,18.6054,VALID,59,VALID,1.22904,
2007-11-03, 02:21:00,VALID,916.051,VALID,0,VALID,100,VALID,-0.101885,VALID,18.6251,VALID,63,VALID,1.06324,
2007-11-03, 02:22:00,VALID,916.042,VALID,0,VALID,100,VALID,-0.101885,VALID,18.6251,VALID,66,VALID,1.30971,
2007-11-03, 02:23:00,VALID,916.027,VALID,0,VALID,100,VALID,-0.0849042,VALID,18.6123,VALID,61,VALID,0.956321,
2007-11-03, 02:24:00,VALID,916.016,VALID,0,VALID,100,VALID,-0.0849042,VALID,18.6181,VALID,73,VALID,1.26432,
2007-11-03, 02:25:00,VALID,915.993,VALID,0,VALID,100,VALID,-0.0339617,VALID,18.6088,VALID,70,VALID,1.1468,
2007-11-03, 02:26:00,VALID,915.976,VALID,0,VALID,100,VALID,-0.0509425,VALID,18.6088,VALID,68,VALID,1.22212,
2007-11-03, 02:27:00,VALID,915.956,VALID,0,VALID,100,VALID,-0.0679233,VALID,18.622,VALID,91,VALID,1.04978,
2007-11-03, 02:28:00,VALID,915.956,VALID,0,VALID,100,VALID,-0.0339617,VALID,18.6253,VALID,86,VALID,0.824929,
2007-11-03, 02:29:00,VALID,915.963,VALID,0,VALID,100,VALID,-0.101885,VALID,18.6121,VALID,59,VALID,0.824219,
2007-11-03, 02:30:00,VALID,915.978,VALID,0,VALID,100,VALID,-0.0849042,VALID,18.6186,VALID,59,VALID,0.300442,
2007-11-03, 02:31:00,VALID,915.981,VALID,0,VALID,100,VALID,-0.0509425,VALID,18.6156,VALID,39,VALID,0.667188,
2007-11-03, 02:32:00,VALID,915.994,VALID,0,VALID,100,VALID,-0.118866,VALID,18.6218,VALID,37,VALID,0.700945,
2007-11-03, 02:33:00,VALID,916.006,VALID,0,VALID,100,VALID,-0.0849042,VALID,18.632,VALID,55,VALID,0.73165,
2007-11-03, 02:34:00,VALID,915.994,VALID,0,VALID,100,VALID,-0.101885,VALID,18.635,VALID,50,VALID,0.651042,
2007-11-03, 02:35:00,VALID,915.994,VALID,0,VALID,100,VALID,-0.101885,VALID,18.6387,VALID,32,VALID,0.70149,
2007-11-03, 02:36:00,VALID,916.001,VALID,0,VALID,100,VALID,-0.0849042,VALID,18.6315,VALID,40,VALID,0.558854,
2007-11-03, 02:37:00,VALID,916.023,VALID,0,VALID,100,VALID,0,VALID,18.6663,VALID,48,VALID,0.744606,
2007-11-03, 02:38:00,VALID,916.005,VALID,0,VALID,100,VALID,0.0679233,VALID,18.669,VALID,50,VALID,0.929506,
2007-11-03, 02:39:00,VALID,916.009,VALID,0,VALID,100,VALID,0.0679233,VALID,18.6556,VALID,38,VALID,0.794695,
2007-11-03, 02:40:00,VALID,916.004,VALID,0,VALID,100,VALID,0.0169808,VALID,18.6528,VALID,45,VALID,0.673363,
2007-11-03, 02:41:00,VALID,916.004,VALID,0,VALID,100,VALID,0.0169808,VALID,18.6563,VALID,21,VALID,0.208777,
2007-11-03, 02:42:00,VALID,915.996,VALID,0,VALID,100,VALID,0.0339617,VALID,18.6493,VALID,15,VALID,0.13891,
2007-11-03, 02:43:00,VALID,915.996,VALID,0,VALID,100,VALID,0.0509425,VALID,18.6693,VALID,15,VALID,0,
2007-11-03, 02:44:00,VALID,915.994,VALID,0,VALID,100,VALID,0.0339617,VALID,18.682,VALID,15,VALID,0,
2007-11-03, 02:45:00,VALID,915.996,VALID,0,VALID,100,VALID,0,VALID,18.7082,VALID,15,VALID,0,
2007-11-03, 02:46:00,VALID,915.988,VALID,0,VALID,100,VALID,0.0509425,VALID,18.7341,VALID,15,VALID,0,
2007-11-03, 02:47:00,VALID,915.991,VALID,0,VALID,100,VALID,0,VALID,18.7439,VALID,15,VALID,0.0682745,
2007-11-03, 02:48:00,VALID,915.998,VALID,0,VALID,100,VALID,0.0339617,VALID,18.7504,VALID,15,VALID,0,
2007-11-03, 02:49:00,VALID,915.987,VALID,0,VALID,100,VALID,0.0339617,VALID,18.7402,VALID,15,VALID,0,
2007-11-03, 02:50:00,VALID,915.972,VALID,0,VALID,100,VALID,0.0339617,VALID,18.7629,VALID,15,VALID,0.087843,
2007-11-03, 02:51:00,VALID,915.954,VALID,0,VALID,100,VALID,0.0339617,VALID,18.7758,VALID,15,VALID,0.0090843,
2007-11-03, 02:52:00,VALID,915.95,VALID,0,VALID,100,VALID,0.0339617,VALID,18.7666,VALID,15,VALID,0,
2007-11-03, 02:53:00,VALID,915.939,VALID,0.2,VALID,100,VALID,0.0679233,VALID,18.7763,VALID,16,VALID,0,
2007-11-03, 02:54:00,VALID,915.916,VALID,0,VALID,100,VALID,0.0339617,VALID,18.7828,VALID,15,VALID,0,
2007-11-03, 02:55:00,VALID,915.906,VALID,0,VALID,100,VALID,0.0339617,VALID,18.7728,VALID,15,VALID,0,
2007-11-03, 02:56:00,VALID,915.875,VALID,0,VALID,100,VALID,0,VALID,18.7666,VALID,15,VALID,0,
2007-11-03, 02:57:00,VALID,915.855,VALID,0,VALID,100,VALID,0,VALID,18.7538,VALID,15,VALID,0,
2007-11-03, 02:58:00,VALID,915.83,VALID,0,VALID,100,VALID,0.0169808,VALID,18.7145,VALID,331,VALID,0.102289,
2007-11-03, 02:59:00,VALID,915.813,VALID,0,VALID,100,VALID,0,VALID,18.6755,VALID,311,VALID,0.00817587,
2007-11-03, 03:00:00,VALID,915.792,VALID,0,VALID,100,VALID,0.0169808,VALID,18.6554,VALID,311,VALID,0,
2007-11-03, 03:01:00,VALID,915.782,VALID,0,VALID,100,VALID,0.0169808,VALID,18.6626,VALID,311,VALID,0,
2007-11-03, 03:02:00,VALID,915.782,VALID,0,VALID,100,VALID,0.0169808,VALID,18.6593,VALID,311,VALID,0,
2007-11-03, 03:03:00,VALID,915.767,VALID,0,VALID,100,VALID,0.0339617,VALID,18.6628,VALID,311,VALID,0,
2007-11-03, 03:04:00,VALID,915.739,VALID,0,VALID,100,VALID,0,VALID,18.6823,VALID,283,VALID,0.0451601,
2007-11-03, 03:05:00,VALID,915.746,VALID,0,VALID,100,VALID,0,VALID,18.6887,VALID,219,VALID,0.251215,
2007-11-03, 03:06:00,VALID,915.732,VALID,0,VALID,100,VALID,-0.0169808,VALID,18.6758,VALID,212,VALID,0.411577,
2007-11-03, 03:07:00,VALID,915.723,VALID,0,VALID,100,VALID,-0.0169808,VALID,18.6565,VALID,212,VALID,0.124599,
2007-11-03, 03:08:00,VALID,915.715,VALID,0,VALID,100,VALID,-0.0169808,VALID,18.6338,VALID,212,VALID,0,
2007-11-03, 03:09:00,VALID,915.717,VALID,0,VALID,100,VALID,-0.0339617,VALID,18.6336,VALID,212,VALID,0,
2007-11-03, 03:10:00,VALID,915.697,VALID,0,VALID,100,VALID,0,VALID,18.6501,VALID,180,VALID,0.315039,
2007-11-03, 03:11:00,VALID,915.702,VALID,0,VALID,100,VALID,-0.0509425,VALID,18.6306,VALID,141,VALID,0.536086,
2007-11-03, 03:12:00,VALID,915.696,VALID,0,VALID,100,VALID,0,VALID,18.6468,VALID,141,VALID,0.265447,
2007-11-03, 03:13:00,VALID,915.696,VALID,0,VALID,100,VALID,-0.0339617,VALID,18.6501,VALID,141,VALID,0.242374,
2007-11-03, 03:14:00,VALID,915.683,VALID,0,VALID,100,VALID,-0.0339617,VALID,18.6732,VALID,116,VALID,0.588914,
2007-11-03, 03:15:00,VALID,915.673,VALID,0,VALID,100,VALID,-0.0339617,VALID,18.6827,VALID,116,VALID,0.531432,
2007-11-03, 03:16:00,VALID,915.681,VALID,0,VALID,100,VALID,-0.0169808,VALID,18.6695,VALID,116,VALID,0.449405,
2007-11-03, 03:17:00,VALID,915.659,VALID,0,VALID,100,VALID,-0.0339617,VALID,18.6663,VALID,116,VALID,0.0805921,
2007-11-03, 03:18:00,VALID,915.656,VALID,0,VALID,100,VALID,-0.0169808,VALID,18.6635,VALID,117,VALID,0.163336,
2007-11-03, 03:19:00,VALID,915.65,VALID,0,VALID,100,VALID,-0.0169808,VALID,18.647,VALID,119,VALID,0.245536,
2007-11-03, 03:20:00,VALID,915.631,VALID,0,VALID,100,VALID,-0.0169808,VALID,18.6338,VALID,119,VALID,0.40968,
2007-11-03, 03:21:00,VALID,915.623,VALID,0,VALID,100,VALID,-0.0339617,VALID,18.6243,VALID,119,VALID,0.314317,
2007-11-03, 03:22:00,VALID,915.613,VALID,0,VALID,100,VALID,-0.0509425,VALID,18.6271,VALID,119,VALID,0.30434,
2007-11-03, 03:23:00,VALID,915.603,VALID,0,VALID,100,VALID,-0.0339617,VALID,18.6341,VALID,137,VALID,0.541061,
2007-11-03, 03:24:00,VALID,915.583,VALID,0,VALID,100,VALID,-0.0679233,VALID,18.6368,VALID,152,VALID,0.630087,
2007-11-03, 03:25:00,VALID,915.582,VALID,0,VALID,100,VALID,-0.0169808,VALID,18.6274,VALID,163,VALID,0.589258,
2007-11-03, 03:26:00,VALID,915.583,VALID,0,VALID,100,VALID,0,VALID,18.6371,VALID,163,VALID,0.294922,
2007-11-03, 03:27:00,VALID,915.563,VALID,0,VALID,100,VALID,-0.0509425,VALID,18.6438,VALID,166,VALID,0.529615,
2007-11-03, 03:28:00,VALID,915.574,VALID,0,VALID,100,VALID,-0.0169808,VALID,18.6468,VALID,183,VALID,0.550195,
2007-11-03, 03:29:00,VALID,915.571,VALID,0,VALID,100,VALID,-0.0339617,VALID,18.6535,VALID,186,VALID,0.532522,
2007-11-03, 03:30:00,VALID,915.567,VALID,0,VALID,100,VALID,-0.0509425,VALID,18.6563,VALID,192,VALID,0.632254,
2007-11-03, 03:31:00,VALID,915.557,VALID,0,VALID,100,VALID,-0.0339617,VALID,18.6466,VALID,212,VALID,0.585211,
2007-11-03, 03:32:00,VALID,915.568,VALID,0,VALID,100,VALID,-0.0509425,VALID,18.6436,VALID,207,VALID,0.226381,
2007-11-03, 03:33:00,VALID,915.564,VALID,0,VALID,100,VALID,0.0169808,VALID,18.6306,VALID,192,VALID,0.294779,
2007-11-03, 03:34:00,VALID,915.562,VALID,0,VALID,100,VALID,0.0509425,VALID,18.613,VALID,192,VALID,0.56468,
2007-11-03, 03:35:00,VALID,915.567,VALID,0,VALID,100,VALID,0.0849042,VALID,18.603,VALID,191,VALID,0.609947,
2007-11-03, 03:36:00,VALID,915.574,VALID,0,VALID,100,VALID,0.0679233,VALID,18.5873,VALID,190,VALID,0.30692,
2007-11-03, 03:37:00,VALID,915.562,VALID,0,VALID,100,VALID,0.0509425,VALID,18.5975,VALID,190,VALID,0,
2007-11-03, 03:38:00,VALID,915.561,VALID,0,VALID,100,VALID,-0.0509425,VALID,18.6012,VALID,190,VALID,0.0441497,
2007-11-03, 03:39:00,VALID,915.555,VALID,0,VALID,100,VALID,-0.0169808,VALID,18.6144,VALID,191,VALID,0.157158,
2007-11-03, 03:40:00,VALID,915.55,VALID,0,VALID,100,VALID,0,VALID,18.6144,VALID,191,VALID,0.241815,